www.pogodaiklimat.ru

Погода и климат >> Архив погоды >> Перу >> Puerto Maldonado


ПОГОДА в Puerto Maldonado

  • Прогноз погоды в Puerto Maldonado
  • Монитор погоды в Puerto Maldonado
  • Климат города

АРХИВ ПОГОДЫ в Puerto Maldonado

Время (UTC), дата Ветер
(напр.,м/с)
 
Видим.   Явления Облачность Т
(С)
Тd
(С)
f
(%)
Тe
(С)
Тes
(С)
Комфортность P
(гПа)
Po
(гПа)
Тmin
(С)
Tmax
(С)
R
(мм)
R24
(мм)
S
(см)
15 9.07 нст 3 10 км 10/3 1050 м
[Sc As trans]
+18.7 +14.2 75 +20 +22 1021.5 998.0
18 9.07 нст 4 10 км 10/0
[As trans]
+20.1 +13.2 64 +22 +26 комфорт 1019.4 996.0
21 9.07 нст 3 10 км 9/0
[As trans]
+19.4 +13.9 70 +21 +22 комфорт 1017.9 994.5
12 10.07 нст 3 8000 м 9/0
[As trans]
+15.0 +8.5 65 +14 +15 1022.6 998.8 +14.7
15 10.07 нст 4 10 км 9/0
[Ac trans]
+18.2 +9.1 55 +18 +23 1023.0 999.4
18 10.07 нст 4 10 км ясно +22.3 +8.2 40 +23 +32 комфорт 1019.5 996.3
21 10.07 нст 3 10 км ясно +22.0 +9.7 46 +24 +25 комфорт 1016.7 993.6
12 11.07 нст 1 10 км 6/0
[Ac trans]
+14.7 +11.9 83 +15 +16 1018.8 995.1 +13.0
15 11.07 нст 3 10 км ясно +21.1 +9.2 46 +22 +32 комфорт 1018.7 995.4
18 11.07 нст 2 10 км ясно +23.9 +8.9 38 +25 +37 комфорт 1015.7 992.8
21 11.07 нст 2 10 км ясно +24.4 +10.9 43 +26 +28 жарко 1013.0 990.1
00 12.07 штиль 0 10 км ясно +16.0 +14.4 90 +16 +16 1016.2 992.6 +25.2
03 12.07 штиль 0 10 км ясно +13.8 +13.0 95 +13 +13 1016.9 993.1
12 12.07 Ю 1 10 км {туман} 8/0
[Ac trans]
+13.9 +13.6 98 +14 +15 1017.3 993.5 +11.3
15 12.07 нст 2 10 км ясно +24.5 +14.7 54 +27 +40 жарко 1017.4 994.5
18 12.07 нст 2 10 км ясно +27.6 +14.1 44 +30 +43 жарко 1014.6 992.0
21 12.07 нст 2 10 км ясно +28.3 +16.5 49 +32 +34 душно 1012.7 990.1
00 13.07 штиль 0 10 км ясно +19.0 +17.7 92 +20 +20 1014.6 991.3 +28.9
12 13.07 штиль 0 10 км 6/0
[Cs]
+16.7 +16.5 99 +17 +18 1016.3 992.8 +14.4
15 13.07 Ю 2 10 км 1/0
[Cs]
+26.3 +18.6 63 +31 +44 душно 1016.3 993.5
18 13.07 нст 3 10 км 6/0
[Ac trans]
+29.8 +19.4 54 +36 +43 очень
душно
1013.6 991.1
21 13.07 С 3 10 км 3/0
[Ac trans]
+29.8 +19.8 55 +36 +37 очень
душно
1011.2 988.8
15 14.07 нст 2 10 км 8/0
[Ac trans]
+25.8 +21.1 75 +32 +39 очень
душно
1014.4 991.6
18 14.07 нст 3 10 км 4/0
[Ac trans]
+30.0 +21.1 59 +38 +47 очень
душно
1011.3 988.9
21 14.07 нст 3 10 км 3/1 600 м
[Cu hum Ac trans]
+30.3 +19.9 54 +37 +38 очень
душно
1009.8 987.4
12 15.07 З 2 10 км ясно +20.2 +20.0 99 +25 +26 комфорт 1012.5 989.3 +17.4
15 15.07 нст 3 10 км ясно +28.1 +21.8 69 +36 +48 очень
душно
1013.0 990.4
18 15.07 нст 3 10 км ясно +31.6 +20.5 52 +39 +49 очень
душно
1010.0 987.8
21 15.07 СЗ 2 10 км 3/3 600 м
[Cu hum]
+30.4 +21.6 59 +38 +40 очень
душно
1008.3 986.0

 

Местоположение метеостанции Puerto Maldonado (Перу): широта -12.60 долгота -69.21 высота над уровнем моря 201 м.

В архиве по умолчанию представлена погода в Puerto Maldonado за последнюю неделю. Архивные данные за месяц целиком и за предыдущие месяцы, начиная с января 2011 года, Вы можете получить, выбрав интересующий диапазон дат из раскрывающегося списка и нажав кнопку "Ввод!".


*Определитесь, кто Вы:
робот инопланетянин человек

Внимание! Время в таблицах - всемирное. Для получения местного времени необходимо прибавить поправку, которая в Puerto Maldonado равна -5 ч.

Смотрите также архив погоды в соседних городах и на ближайших метеорологических станциях:

Погода в Cobija (Боливия) (181 км)
Погода в Epitaciolandia (Бразилия) (183 км)
Погода в Rurrenabaque (Боливия) (273 км)
Погода в Reyes (Боливия) (275 км)
Погода в Santa Rosa (Боливия) (305 км)
Погода в Cuzco (Перу) (312 км)
Погода в Rio Branco (Бразилия) (315 км)
Погода в Rio Branco (Бразилия) (328 км)
Погода в Juliaca (Перу) (336 км)
Погода в San Borja (Боливия) (357 км)

Пояснения к столбцам:

Ветер - указаны скорость ветра в м/с - средняя за 10 мин, порывы в срок и между сроками (в фигурных скобках) и направление, откуда дует ветер: С - северный, СВ - северо-восточный, В - восточный, ЮВ - юго-восточный, Ю - южный, ЮЗ - юго-западный, З - западный, СЗ - северо-западный.
Видимость - горизонтальная дальность видимости в метрах или километрах. При видимости от 1 до 10 км при отсутствии осадков обычно наблюдается дымка, при ухудшении видимости до 1 км и менее - туман. В сухую погоду видимость может ухудшаться дымом, пылью или мглою.
Явления - указаны атмосферные явления, наблюдавшиеся в срок или в последний час перед сроком; фигурными скобками обозначены явления, наблюдавшиеся между сроками (за 1-3 часа до срока); квадратными скобками обозначены град или гололедные отложения с указанием их диаметра в мм.
Облачность - указаны через наклонную черту общая и нижняя облачность в баллах и высота нижней границы облаков в метрах; квадратными скобками обозначены формы облаков: Ci - перистые, Cs - перисто-слоистые, Cc - перисто-кучевые, Ac - высококучевые, As - высокослоистые, Sc - слоисто-кучевые, Ns - слоисто-дождевые, Cu - кучевые, Cb - кучево-дождевые. Подробнее классификацию облаков см. в Атласе облаков (PDF).
T - Температура воздуха - температура, измеренная на высоте 2 м над землей.
Td - Температура точки росы - температура, при понижении до которой содержащийся в воздухе водяной пар достигнет насыщения.
f - Относительная влажность воздуха - влажноcть воздуха, измеренная на высоте 2 м над землей.
Te - Эффективная температура - температура, которую ощущает одетый по сезону человек в тени. Характеристика душности погоды. При расчете учитывается влияние влажности воздуха и скорости ветра на теплоощущения человека.
Tes - Эффективная температура на солнце - температура, которую ощущает человек, с поправкой на солнечный нагрев. Характеристика знойности погоды. Зависит от высоты солнца над горизонтом, облачности и скорости ветра. Ночью, в пасмурную погоду, а также при ветре 12 м/с и более поправка равна нулю.
P - Атмосферное давление - приведенное к уровню моря атмосферное давление.
Po - Атмосферное давление - измеренное на уровне метеостанции атмосферное давление.
Tmin - Минимальная температура - минимум температуры воздуха на высоте 2 м над землей.
Tmax - Максимальная температура - максимум температуры воздуха на высоте 2 м над землей.
R - Количество осадков - Количество выпавших осадков за период времени, мм. При наведении курсора мыши на число - период времени, за который выпало указанное количество осадков.
R24 - Количество осадков - Количество выпавших осадков за 24 часа, мм.
S - Снежный покров - Высота снежного покрова, см. При наведении курсора мыши на число - состояние снежного покрова и степень покрытия местности в баллах.